Starlink 33551

operational
NORAD ID: 62110 Int'l Des: 2024-220 Owner: SPXS Country: US Constellation: starlink
LEOCIRCULAR

Über Starlink 33551

Beschreibung wird geladen...

Live-Position

3D-Globus wird geladen...

Nächste Überflüge

Höhenverlauf

Altitude vs Time

uPlot chart will show altitude changes over time

Zweizeiliger Elementsatz

1 62110U 24220Y 26036.99599535 .00053634 00000-0 19435-2 0 9996
2 62110 43.0032 24.5666 0000865 265.4513 94.6240 15.27595139 68341
Epoch: 5. Feb. 2026 • Age: 13 hours

Aktueller Status

Höhe 485.5 km
Geschwindigkeit 7.63 km/s
Subsatellitenpunkt 38.20°N, 110.83°E
Startdatum 25. Nov. 2024
Alter 1.1 years
Typ internet

Technische Details

Klassifizierung Payload
Masse 530.00 kg
Trockenmasse 500.00 kg
Gesamtmasse 530.00 kg
Länge 0.30 m
Durchmesser 4.10 m
Spannweite 29.00 m
Form Box + pan
Hersteller SPXS
Bus-Typ Starlink V2MO
Phasenstatus In Orbit
Besitzer/Staat SPXS/US

Große Konstellationen

Loading constellations...